STARLINK-2387, 47806

Orbit data source: Space-Track

STARLINK-2387, 47806 is a payload satellite owned by SpaceX/Seattle (US) in LEO that was launched on Thu, 11 Mar 2021 UTC via an FALCON 9 launch vehicle from the Air Force Eastern Test Range (AFETR). Payload-class satellites include a variety of spacecraft equipped with specific instruments for various scientific and technological missions. These include communications satellites like Starlink; space stations such as the ISS; scientific satellites like the Hubble; Earth observation satellites from companies like Planet Labs, Umbra, and HawkEye 360; GPS; miniature CubeSats for education and research; and military/defense satellites.

Loading next visibility...
Identifier
47806, 2021-018V
Orbit
LEO
Country
Flag of USUS
Related business
Manufacturer
SpaceX/Seattle
Mission
Operational Commercial Communications
Bus & Motor
STARLINK, Unknown motor
Mass
260 kg wet, ~248 kg dry
Launch date (UTC)
2021-03-11 (5 years ago)
Launch vehicle
FALCON 9
Launch site
Air Force Eastern Test Range (AFETR)
Object type
Payload
Rocket body
Debris
Shape & HBR
Box + 1 Pan, 10.1 m
Radar Cross Section
13.562 m², Large (>1 m²)

Expand to show TLE details & history
Last TLE update: 8 hours ago

TLE from 8 hours ago
0 STARLINK-2387
1 47806U 21018V   26035.50002314  .00068719  00000-0  39949-2 0  9995
2 47806  53.0735  35.5668 0001250  92.4395 238.8224 15.11462938  5816
Epoch: 2026-02-04T12:00Z
TLE epoch observation values (Epoch: 2026-02-04T12:00:01.999Z)
Latitude
-22.8025°
Longitude
62.57868°
Altitude
538.669 km
Speed
7.593 km/s
True Right ascension
01h 09m 00s
True Declination
-22° 40' 34"
Sunlit
Object was in daylight at epoch
Visualization orbit readout
Latitude
Unknown
Longitude
Unknown
Altitude
Unknown
Speed
Unknown
Apparent Right ascension
Unknown
Apparent Declination
Unknown
Sunlit
N/A
Visualization observer readout
Local Sidereal Time
21:37:28
Azimuth
Unknown
Elevation
Unknown
Doppler factor
Unknown
Orbital elements
Apogee altitude
532.87 km
Perigee altitude
531.142 km
Semi-major axis
6,910.143 km
Eccentricity
0.00013
Inclination
53.0735°
RAAN
35.5668°
Arg. of periapsis
92.4395°
True anomaly
238.81015°
Mean anomaly
238.8224°
Eccentric anomaly
238.81627°
Mean motion
3.77844 °/min
Orbital period
95.28 mins
BSTAR
0.0039949
Loading maneuver chart data...
Computing Atmospheric mass density...
Loading historical data...
Loading historical data...
Loading historical data...
Loading historical data...
Loading historical data...
Loading historical data...
Loading historical data...

Documentation

Showing up to 5 results
|